Regional Weather Roundup
Issued by NWS

Home | Current Version | Previous Version | Graphics & Text | Print | Product List | Glossary On
Versions: 1 2 3 4 5 6 7 8 9 10 11 12 13 14 15 16 17 18 19 20 21 22 23 24 25 26 27 28 29 30 31 32 33 34 35 36 37 38 39 40 41 42 43 44 45 46 47 48 49 50
000
ASUS43 KIND 031559
RWRIN

WEATHER ROUNDUP FOR INDIANA
NATIONAL WEATHER SERVICE INDIANAPOLIS IN
1100 AM EST SAT DEC 03 2016

NOTE: "FAIR" INDICATES FEW OR NO CLOUDS BELOW 12,000 FEET WITH NO
SIGNIFICANT WEATHER AND/OR OBSTRUCTIONS TO VISIBILITY.

* - STATION DOES NOT REPORT WEATHER SUCH AS PRECIPITATION OR FOG.

+ - STATION NOT QUALITY CONTROLLED BY THE NATIONAL WEATHER SERVICE.
    USE DATA WITH CAUTION...ESPECIALLY DEWPOINT AND RELATIVE
    HUMIDITY OBSERVATIONS.

INZ001>003-010>013-019-020-031700-
NORTHWEST INDIANA

CITY           SKY/WX    TMP DP  RH WIND       PRES   REMARKS
GARY /AIRPORT/ PTSUNNY   36  23  60 W3        30.35S
MONTICELLO +   CLOUDY    35  22  58 N6        30.32F WCI  30

$$

LMZ046-743>745-031700-
SOUTHERN LAKE MICHIGAN

STATION/POSITION TIME  TEMP    WIND        PRES    WAVE
                       AIR SEA DIR/SP/G            HT
                 (UTC) (F)     (DEG/KT/KT) (MB)    (FT)
BURNS HARBOR     1540   35     310/  5/  7 1027.4F
MICHIGAN CITY    1530   35     290/  4/  4   N/A

$$

INZ004-005-014>016-021>024-031700-
NORTH CENTRAL INDIANA

CITY           SKY/WX    TMP DP  RH WIND       PRES   REMARKS
ELKHART        CLOUDY    36  27  69 CALM      30.32F
GOSHEN         CLOUDY    35  27  72 W3        30.32F
SOUTH BEND     CLOUDY    34  26  72 W3        30.33F

$$

INZ006>009-017-018-025>027-031700-
NORTHEAST INDIANA

CITY           SKY/WX    TMP DP  RH WIND       PRES   REMARKS
ANGOLA *+      CLOUDY    36  28  75 VRB3      30.29F
FORT WAYNE     CLOUDY    37  26  64 NW5       30.32F
KENDALLVILLE + CLOUDY    34  29  80 W3        30.31F

$$

INZ028-029-035-036-043>045-051>053-031700-
WEST CENTRAL INDIANA

CITY           SKY/WX    TMP DP  RH WIND       PRES   REMARKS
CRAWFORDSVL +  CLOUDY    34  27  75 W8        30.38R WCI  27
GREENCASTLE +  CLOUDY    36  30  80 CALM      30.37R
LAFAYETTE      CLOUDY    35  26  69 N6        30.34F WCI  30
TERRE HAUTE    CLOUDY    38  26  62 N6        30.39R

$$

INZ030>032-037>040-046>048-054>057-064-065-031700-
CENTRAL INDIANA

CITY           SKY/WX    TMP DP  RH WIND       PRES   REMARKS
ANDERSON       CLOUDY    37  27  65 CALM      30.33F
GREENWOOD *+   CLOUDY    37  29  74 CALM      30.36S
INDIANAPOLIS   PTSUNNY   37  26  64 NW8       30.36R
-EAGLE CREEK   CLOUDY    38  26  62 W6        30.35R
KOKOMO +       CLOUDY    36  26  67 CALM      30.32F
SHELBYVILLE    CLOUDY    38  30  73 W7        30.34S
ZIONSVILLE +   CLOUDY    35  26  71 W7        30.35R WCI  29

$$

INZ033-034-041-042-049-050-058-059-031700-
EAST CENTRAL INDIANA

CITY           SKY/WX    TMP DP  RH WIND       PRES   REMARKS
MUNCIE         CLOUDY    38  25  59 W5        30.32F

$$

INZ060-061-067>069-081>083-085>088-031700-
SOUTHWEST INDIANA

CITY           SKY/WX    TMP DP  RH WIND       PRES   REMARKS
EVANSVILLE     MOSUNNY   43  31  62 E6        30.39R
HUNTINGBURG *+ MOSUNNY   43  30  60 E3        30.39R

$$

INZ062-063-066-070>080-084-089>092-031700-
SOUTH CENTRAL AND SOUTHEAST INDIANA

CITY           SKY/WX    TMP DP  RH WIND       PRES   REMARKS
BLOOMINGTON    CLOUDY    40  27  59 N6        30.36S
MADISON *+     CLOUDY    41  28  60 NW5       30.37F
SEYMOUR +      CLOUDY    43  30  61 CALM      30.37F

$$




USA.gov is the U.S. government's official web portal to all federal, state and local government web resources and services.